Zurück zum Katalog

ONEWEB-0023

AktivKommunikationPO
NORAD 45136·PAYLOAD·🇬🇧 United Kingdom

Gestartet Feb 6, 2020 von Baikonur Cosmodrome

Loading…

Nächste Überflüge (nächste 24 Stunden)

TLE

AktuellSource: CelesTrak SupGP

Epoche: Sep 14, 2026, 08:20 UTC

1 45136C 20008F   26257.34772405  .00000382  00000+0  10961-2 0  2571
2 45136  87.8907  18.5147 0001786 107.6199 318.1269 13.10373465    15

Verfolge ONEWEB-0023 in Echtzeit mit AllMySat

Download on the App Store